QTR86B EBLG-ENGM

Flight info

Callsign QTR86B
Flight time 1h 45m
Altitude 36000
Route BUB M624 NIK L191 VICOT DCT GREFI/N0473F350 DCT AMRAM DCT LINVI DCT INSAP DCT PIPEX DCT ULMUG DCT RIPAM
Aircraft B77L/H-SDE1E3FGHIJ1J3J4J5M1P2RWXYZ/LB1D1

Departure

Time 2026-05-08 19:34
Airport Liège Airport (EBLG)

Arrival

Time 2026-05-08 21:19
Airport Oslo-Gardermoen International Airport (ENGM)
Time Latitude Longitude Altitude Speed Heading
2026-05-08 18:39 50.63934 5.45262 620 ft 0 kts 134°
2026-05-08 19:25 50.63935 5.45262 620 ft 1 kts 134°
2026-05-08 19:25 50.63952 5.45235 634 ft 4 kts 135°
2026-05-08 19:26 50.63968 5.45210 631 ft 4 kts 140°
2026-05-08 19:26 50.63990 5.45192 633 ft 4 kts 184°
2026-05-08 19:26 50.64012 5.45206 633 ft 4 kts 221°
2026-05-08 19:26 50.64025 5.45225 633 ft 1 kts 225°
2026-05-08 19:30 50.64008 5.45198 633 ft 7 kts 225°
2026-05-08 19:30 50.63959 5.45120 631 ft 14 kts 225°
2026-05-08 19:30 50.63873 5.44983 633 ft 21 kts 225°
2026-05-08 19:30 50.63766 5.44812 632 ft 22 kts 225°
2026-05-08 19:31 50.63660 5.44645 634 ft 22 kts 225°
2026-05-08 19:31 50.63552 5.44475 633 ft 22 kts 225°
2026-05-08 19:31 50.63444 5.44306 639 ft 22 kts 225°
2026-05-08 19:31 50.63337 5.44136 647 ft 21 kts 225°
2026-05-08 19:32 50.63246 5.43992 645 ft 15 kts 225°
2026-05-08 19:32 50.63198 5.43900 644 ft 10 kts 252°
2026-05-08 19:32 50.63215 5.43833 649 ft 6 kts 328°
2026-05-08 19:32 50.63244 5.43832 648 ft 6 kts 13°
2026-05-08 19:33 50.63308 5.43864 647 ft 10 kts 18°
2026-05-08 19:33 50.63388 5.43888 650 ft 13 kts 11°
2026-05-08 19:33 50.63461 5.43962 645 ft 14 kts 46°
2026-05-08 19:33 50.63627 5.44227 635 ft 69 kts 45°
2026-05-08 19:34 50.64158 5.45070 601 ft 145 kts 45°
2026-05-08 19:34 50.64684 5.45899 726 ft 169 kts 45°
2026-05-08 19:34 50.65496 5.47191 1466 ft 168 kts 46°
2026-05-08 19:34 50.66600 5.48933 2452 ft 168 kts 46°
2026-05-08 19:35 50.67438 5.50251 2950 ft 175 kts 46°
2026-05-08 19:35 50.68298 5.51621 3511 ft 175 kts 47°
2026-05-08 19:35 50.69173 5.53028 3922 ft 187 kts 47°
2026-05-08 19:35 50.70136 5.54583 4119 ft 210 kts 46°
2026-05-08 19:36 50.71208 5.56291 4488 ft 225 kts 45°
2026-05-08 19:36 50.72021 5.57342 4773 ft 232 kts 28°
2026-05-08 19:36 50.73607 5.57844 5302 ft 240 kts 351°
2026-05-08 19:36 50.75101 5.56764 5979 ft 239 kts 314°
2026-05-08 19:37 50.75915 5.54527 6623 ft 236 kts 284°
2026-05-08 19:37 50.76471 5.51166 7387 ft 241 kts 284°
2026-05-08 19:37 50.76911 5.48606 8071 ft 243 kts 284°
2026-05-08 19:37 50.77359 5.46027 8744 ft 244 kts 284°
2026-05-08 19:38 50.77658 5.44310 9193 ft 246 kts 284°
2026-05-08 19:38 50.78097 5.41671 9733 ft 255 kts 282°
2026-05-08 19:38 50.78506 5.38815 10008 ft 275 kts 282°
2026-05-08 19:38 50.78924 5.35805 10430 ft 289 kts 282°
2026-05-08 19:39 50.79376 5.32560 10620 ft 315 kts 282°
2026-05-08 19:39 50.79869 5.29048 10812 ft 340 kts 282°
2026-05-08 19:39 50.80401 5.25279 11087 ft 361 kts 282°
2026-05-08 19:39 50.81144 5.20039 11967 ft 375 kts 282°
2026-05-08 19:40 50.81530 5.17304 12547 ft 379 kts 282°
2026-05-08 19:40 50.82100 5.13259 13455 ft 384 kts 282°
2026-05-08 19:40 50.82679 5.09100 14284 ft 390 kts 281°
2026-05-08 19:40 50.83263 5.04879 15116 ft 394 kts 281°
2026-05-08 19:41 50.83848 5.00631 15999 ft 397 kts 282°
2026-05-08 19:41 50.84436 4.96353 16874 ft 399 kts 282°
2026-05-08 19:41 50.85027 4.92042 17723 ft 403 kts 282°
2026-05-08 19:42 50.85186 4.90881 17928 ft 404 kts 282°
2026-05-08 19:42 50.85657 4.87435 18552 ft 408 kts 282°
2026-05-08 19:42 50.86258 4.83030 19236 ft 412 kts 282°
2026-05-08 19:42 50.86864 4.78577 19909 ft 416 kts 282°
2026-05-08 19:43 50.87474 4.74073 20564 ft 421 kts 282°
2026-05-08 19:43 50.88090 4.69523 21239 ft 425 kts 282°
2026-05-08 19:43 50.88711 4.64919 21856 ft 430 kts 282°
2026-05-08 19:43 50.89336 4.60267 22496 ft 434 kts 282°
2026-05-08 19:44 50.90138 4.55677 22966 ft 435 kts 294°
2026-05-08 19:44 50.91770 4.51611 23443 ft 441 kts 313°
2026-05-08 19:44 50.94058 4.48391 23993 ft 441 kts 321°
2026-05-08 19:44 50.96417 4.45360 24524 ft 444 kts 321°
2026-05-08 19:45 50.98801 4.42237 25163 ft 444 kts 321°
2026-05-08 19:45 51.01171 4.39090 25811 ft 445 kts 321°
2026-05-08 19:45 51.03540 4.35916 26425 ft 446 kts 321°
2026-05-08 19:45 51.05913 4.32723 27015 ft 448 kts 321°
2026-05-08 19:46 51.08298 4.29503 27561 ft 451 kts 321°
2026-05-08 19:46 51.10693 4.26266 28115 ft 453 kts 321°
2026-05-08 19:46 51.15512 4.19746 29156 ft 456 kts 322°
2026-05-08 19:47 51.17956 4.16619 29621 ft 457 kts 325°
2026-05-08 19:47 51.20521 4.13625 30146 ft 457 kts 326°
2026-05-08 19:47 51.23090 4.10667 30717 ft 452 kts 327°
2026-05-08 19:47 51.25796 4.08175 31235 ft 448 kts 337°
2026-05-08 19:48 51.28717 4.06505 31769 ft 445 kts 344°
2026-05-08 19:48 51.31738 4.05430 32247 ft 444 kts 351°
2026-05-08 19:48 51.34819 4.05159 32716 ft 444 kts 359°
2026-05-08 19:48 51.37902 4.05230 33200 ft 442 kts 359°
2026-05-08 19:49 51.40974 4.05241 33663 ft 441 kts 358°
2026-05-08 19:49 51.44036 4.05207 34120 ft 439 kts 358°
2026-05-08 19:49 51.47047 4.05482 34455 ft 441 kts
2026-05-08 19:49 51.50099 4.06178 34665 ft 446 kts
2026-05-08 19:50 51.53137 4.07306 34868 ft 451 kts 13°
2026-05-08 19:50 51.56153 4.08716 35104 ft 452 kts 13°
2026-05-08 19:50 51.59174 4.10174 35370 ft 454 kts 13°
2026-05-08 19:50 51.62197 4.11646 35620 ft 455 kts 13°
2026-05-08 19:51 51.65234 4.13122 35856 ft 457 kts 13°
2026-05-08 19:51 51.68286 4.14597 36037 ft 460 kts 13°
2026-05-08 19:51 51.74418 4.17541 36134 ft 463 kts 13°
2026-05-08 19:52 51.80575 4.20491 36117 ft 458 kts 13°
2026-05-08 19:52 51.86668 4.23414 36139 ft 456 kts 13°
2026-05-08 19:53 51.92749 4.26336 36133 ft 455 kts 13°
2026-05-08 19:53 51.98824 4.29264 36137 ft 456 kts 13°
2026-05-08 19:54 52.04869 4.32187 36125 ft 457 kts 13°
2026-05-08 19:54 52.10967 4.35145 36131 ft 458 kts 13°
2026-05-08 19:55 52.17082 4.38119 36135 ft 459 kts 13°
2026-05-08 19:55 52.23209 4.41108 36140 ft 460 kts 13°
2026-05-08 19:56 52.29356 4.44116 36137 ft 461 kts 13°
2026-05-08 19:56 52.35463 4.47113 36144 ft 462 kts 13°
2026-05-08 19:57 52.41619 4.50142 36140 ft 462 kts 13°
2026-05-08 19:57 52.47772 4.53179 36148 ft 462 kts 13°
2026-05-08 19:58 52.53931 4.56228 36146 ft 462 kts 13°
2026-05-08 19:58 52.60083 4.59282 36146 ft 462 kts 13°
2026-05-08 19:59 52.66195 4.62326 36145 ft 462 kts 13°
2026-05-08 19:59 52.72347 4.65397 36151 ft 462 kts 13°
2026-05-08 20:00 52.78496 4.68477 36148 ft 462 kts 13°
2026-05-08 20:00 52.84640 4.71564 36131 ft 462 kts 13°
2026-05-08 20:01 52.90744 4.74638 36131 ft 462 kts 13°
2026-05-08 20:01 52.96891 4.77744 36131 ft 462 kts 13°
2026-05-08 20:02 53.03041 4.80861 36132 ft 462 kts 13°
2026-05-08 20:02 53.09191 4.83987 36157 ft 462 kts 13°
2026-05-08 20:03 53.15301 4.87102 36160 ft 462 kts 13°
2026-05-08 20:03 53.21458 4.90251 36155 ft 463 kts 13°
2026-05-08 20:04 53.27623 4.93412 36160 ft 463 kts 13°
2026-05-08 20:04 53.33788 4.96584 36161 ft 464 kts 13°
2026-05-08 20:05 53.39916 4.99746 36162 ft 464 kts 13°
2026-05-08 20:05 53.46085 5.02939 36184 ft 464 kts 13°
2026-05-08 20:06 53.52255 5.06142 36178 ft 464 kts 13°
2026-05-08 20:06 53.58428 5.09357 36185 ft 464 kts 13°
2026-05-08 20:07 53.64601 5.12581 36206 ft 464 kts 13°
2026-05-08 20:07 53.70733 5.15794 36200 ft 465 kts 13°
2026-05-08 20:08 53.76907 5.19039 36197 ft 465 kts 13°
2026-05-08 20:08 53.83085 5.22296 36202 ft 465 kts 14°
2026-05-08 20:09 53.89265 5.25563 36205 ft 465 kts 14°
2026-05-08 20:09 53.95404 5.28820 36192 ft 466 kts 14°
2026-05-08 20:10 54.01589 5.32111 36201 ft 466 kts 14°
2026-05-08 20:10 54.07774 5.35412 36196 ft 466 kts 14°
2026-05-08 20:11 54.13958 5.38723 36218 ft 466 kts 14°
2026-05-08 20:11 54.20147 5.42047 36201 ft 466 kts 14°
2026-05-08 20:12 54.26297 5.45360 36204 ft 467 kts 14°
2026-05-08 20:12 54.32489 5.48707 36213 ft 467 kts 14°
2026-05-08 20:13 54.38683 5.52066 36225 ft 467 kts 14°
2026-05-08 20:13 54.44883 5.55438 36214 ft 467 kts 14°
2026-05-08 20:14 54.51044 5.58800 36218 ft 468 kts 14°
2026-05-08 20:14 54.57246 5.62195 36218 ft 468 kts 14°
2026-05-08 20:15 54.63454 5.65604 36238 ft 468 kts 14°
2026-05-08 20:15 54.69666 5.69026 36225 ft 469 kts 14°
2026-05-08 20:16 54.75838 5.72437 36227 ft 469 kts 14°
2026-05-08 20:16 54.82056 5.75885 36228 ft 469 kts 14°
2026-05-08 20:17 54.88279 5.79347 36241 ft 470 kts 14°
2026-05-08 20:17 54.94505 5.82822 36231 ft 470 kts 14°
2026-05-08 20:18 55.00720 5.86421 36230 ft 473 kts 18°
2026-05-08 20:18 55.06699 5.91099 36236 ft 475 kts 21°
2026-05-08 20:19 55.12677 5.96006 36253 ft 475 kts 21°
2026-05-08 20:19 55.18672 6.00899 36236 ft 476 kts 21°
2026-05-08 20:20 55.24687 6.05777 36242 ft 476 kts 21°
2026-05-08 20:20 55.30664 6.10626 36246 ft 476 kts 21°
2026-05-08 20:21 55.36677 6.15521 36238 ft 476 kts 21°
2026-05-08 20:21 55.42686 6.20431 36243 ft 476 kts 21°
2026-05-08 20:22 55.48693 6.25358 36246 ft 476 kts 21°
2026-05-08 20:22 55.54695 6.30297 36250 ft 476 kts 21°
2026-05-08 20:23 55.60649 6.35213 36247 ft 476 kts 21°
2026-05-08 20:23 55.66645 6.40181 36256 ft 476 kts 21°
2026-05-08 20:24 55.72644 6.45167 36250 ft 476 kts 21°
2026-05-08 20:24 55.78643 6.50171 36251 ft 476 kts 21°
2026-05-08 20:25 55.84640 6.55191 36256 ft 477 kts 21°
2026-05-08 20:25 55.90600 6.60196 36256 ft 477 kts 21°
2026-05-08 20:26 55.96684 6.64810 36258 ft 473 kts 14°
2026-05-08 20:26 56.02965 6.68234 36261 ft 472 kts 13°
2026-05-08 20:27 56.09261 6.71581 36258 ft 472 kts 13°
2026-05-08 20:27 56.15510 6.74975 36268 ft 473 kts 13°
2026-05-08 20:28 56.21808 6.78450 36259 ft 474 kts 13°
2026-05-08 20:28 56.28106 6.81947 36259 ft 474 kts 13°
2026-05-08 20:29 56.34411 6.85459 36262 ft 474 kts 13°
2026-05-08 20:29 56.40677 6.88959 36272 ft 475 kts 13°
2026-05-08 20:30 56.46989 6.92496 36257 ft 475 kts 13°
2026-05-08 20:30 56.53305 6.96047 36272 ft 475 kts 13°
2026-05-08 20:31 56.59610 6.99606 36263 ft 474 kts 13°
2026-05-08 20:31 56.65902 7.03170 36279 ft 473 kts 13°
2026-05-08 20:32 56.72144 7.06717 36266 ft 473 kts 13°
2026-05-08 20:32 56.78423 7.10297 36264 ft 473 kts 13°
2026-05-08 20:33 56.84697 7.13888 36265 ft 473 kts 13°
2026-05-08 20:33 56.90934 7.17470 36278 ft 473 kts 13°
2026-05-08 20:34 56.97216 7.21089 36266 ft 474 kts 13°
2026-05-08 20:35 57.06381 7.28109 36270 ft 479 kts 22°
2026-05-08 20:35 57.12363 7.33522 36268 ft 479 kts 22°
2026-05-08 20:36 57.18315 7.38887 36286 ft 480 kts 22°
2026-05-08 20:36 57.24329 7.44264 36273 ft 481 kts 22°
2026-05-08 20:37 57.30360 7.49653 36269 ft 482 kts 22°
2026-05-08 20:37 57.36394 7.55065 36270 ft 482 kts 22°
2026-05-08 20:38 57.42388 7.60463 36281 ft 482 kts 22°
2026-05-08 20:38 57.48429 7.65925 36263 ft 483 kts 22°
2026-05-08 20:39 57.54472 7.71409 36261 ft 483 kts 22°
2026-05-08 20:39 57.60514 7.76913 36268 ft 484 kts 22°
2026-05-08 20:40 57.66557 7.82438 36283 ft 484 kts 22°
2026-05-08 20:40 57.72559 7.87946 36270 ft 484 kts 22°
2026-05-08 20:41 57.78602 7.93511 36278 ft 484 kts 23°
2026-05-08 20:41 57.84641 7.99096 36270 ft 484 kts 23°
2026-05-08 20:42 57.90670 8.04691 36282 ft 483 kts 23°
2026-05-08 20:42 57.96652 8.10264 36292 ft 483 kts 23°
2026-05-08 20:43 58.02679 8.15898 36289 ft 484 kts 24°
2026-05-08 20:43 58.08705 8.21555 36290 ft 484 kts 24°
2026-05-08 20:44 58.14737 8.27238 36293 ft 484 kts 24°
2026-05-08 20:44 58.20726 8.32903 36313 ft 485 kts 24°
2026-05-08 20:45 58.26767 8.38638 36294 ft 486 kts 24°
2026-05-08 20:45 58.32812 8.44433 36286 ft 487 kts 26°
2026-05-08 20:46 58.38689 8.50926 36282 ft 489 kts 28°
2026-05-08 20:46 58.44508 8.57662 36286 ft 490 kts 28°
2026-05-08 20:47 58.50303 8.64348 36286 ft 490 kts 28°
2026-05-08 20:47 58.56147 8.71062 36283 ft 490 kts 28°
2026-05-08 20:48 58.61992 8.77789 36292 ft 490 kts 28°
2026-05-08 20:48 58.67831 8.84537 36281 ft 490 kts 29°
2026-05-08 20:49 58.73622 8.91260 36292 ft 490 kts 29°
2026-05-08 20:49 58.79456 8.98060 36283 ft 490 kts 29°
2026-05-08 20:50 58.85258 9.04995 36291 ft 491 kts 33°
2026-05-08 20:50 58.90666 9.13114 36288 ft 493 kts 37°
2026-05-08 20:51 58.95957 9.21420 36288 ft 493 kts 37°
2026-05-08 20:51 59.01313 9.29759 36292 ft 494 kts 37°
2026-05-08 20:52 59.06690 9.38095 36282 ft 495 kts 37°
2026-05-08 20:52 59.12075 9.46473 36286 ft 496 kts 37°
2026-05-08 20:53 59.17466 9.54900 36279 ft 497 kts 37°
2026-05-08 20:53 59.23058 9.62618 36272 ft 496 kts 31°
2026-05-08 20:54 59.28871 9.69917 36064 ft 500 kts 32°
2026-05-08 20:54 59.31823 9.73679 35240 ft 510 kts 31°
2026-05-08 20:54 59.34968 9.76819 34420 ft 508 kts 18°
2026-05-08 20:54 59.38358 9.78792 33453 ft 508 kts 12°
2026-05-08 20:55 59.41766 9.80417 32911 ft 500 kts 12°
2026-05-08 20:55 59.45082 9.82006 32355 ft 494 kts 12°
2026-05-08 20:55 59.48387 9.83692 31838 ft 488 kts 13°
2026-05-08 20:55 59.51644 9.85452 31327 ft 483 kts 14°
2026-05-08 20:56 59.54861 9.87252 30829 ft 478 kts 14°
2026-05-08 20:56 59.58049 9.89060 30326 ft 474 kts 14°
2026-05-08 20:56 59.61207 9.90850 29755 ft 470 kts 14°
2026-05-08 20:56 59.64333 9.92615 29245 ft 465 kts 14°
2026-05-08 20:57 59.67424 9.94355 28754 ft 459 kts 14°
2026-05-08 20:57 59.70482 9.96066 28248 ft 455 kts 14°
2026-05-08 20:57 59.73475 9.97737 27768 ft 450 kts 14°
2026-05-08 20:57 59.76472 9.99413 27284 ft 446 kts 14°
2026-05-08 20:58 59.79449 10.01082 26806 ft 442 kts 14°
2026-05-08 20:58 59.82396 10.02739 26331 ft 439 kts 14°
2026-05-08 20:58 59.85327 10.04389 25867 ft 436 kts 14°
2026-05-08 20:58 59.88227 10.06027 25479 ft 431 kts 14°
2026-05-08 20:59 59.91096 10.07650 25044 ft 427 kts 14°
2026-05-08 20:59 59.93944 10.09263 24606 ft 424 kts 14°
2026-05-08 20:59 59.96774 10.10878 24167 ft 422 kts 14°
2026-05-08 20:59 59.99549 10.12473 23713 ft 419 kts 14°
2026-05-08 21:00 60.02343 10.14083 23185 ft 417 kts 14°
2026-05-08 21:00 60.05116 10.15682 22736 ft 413 kts 14°
2026-05-08 21:00 60.07862 10.17268 22317 ft 409 kts 14°
2026-05-08 21:00 60.10585 10.18841 21953 ft 404 kts 14°
2026-05-08 21:01 60.13261 10.20391 21619 ft 398 kts 14°
2026-05-08 21:01 60.15915 10.21929 21196 ft 396 kts 15°
2026-05-08 21:01 60.18553 10.23459 20773 ft 394 kts 15°
2026-05-08 21:01 60.21178 10.24984 20347 ft 392 kts 15°
2026-05-08 21:02 60.23755 10.26483 19932 ft 390 kts 15°
2026-05-08 21:02 60.26359 10.27999 19508 ft 389 kts 15°
2026-05-08 21:02 60.28952 10.29511 19089 ft 388 kts 15°
2026-05-08 21:02 60.31538 10.31023 18669 ft 387 kts 15°
2026-05-08 21:03 60.34098 10.32667 18199 ft 386 kts 21°
2026-05-08 21:03 60.36555 10.34838 17742 ft 385 kts 25°
2026-05-08 21:03 60.38958 10.37188 17310 ft 383 kts 25°
2026-05-08 21:03 60.41361 10.39486 16891 ft 381 kts 24°
2026-05-08 21:04 60.43768 10.41707 16472 ft 379 kts 24°
2026-05-08 21:04 60.46139 10.43851 16058 ft 376 kts 22°
2026-05-08 21:04 60.48620 10.45343 15634 ft 371 kts
2026-05-08 21:04 60.51165 10.46107 15249 ft 369 kts
2026-05-08 21:05 60.53709 10.46821 14836 ft 369 kts
2026-05-08 21:05 60.56242 10.47627 14427 ft 367 kts
2026-05-08 21:05 60.58648 10.49161 13995 ft 364 kts 28°
2026-05-08 21:05 60.60798 10.51855 13584 ft 362 kts 32°
2026-05-08 21:06 60.62944 10.54522 13150 ft 361 kts 30°
2026-05-08 21:06 60.65090 10.57043 12763 ft 360 kts 30°
2026-05-08 21:06 60.67189 10.59722 12329 ft 351 kts 41°
2026-05-08 21:06 60.68815 10.63363 11999 ft 346 kts 54°
2026-05-08 21:07 60.70295 10.67227 11619 ft 345 kts 52°
2026-05-08 21:07 60.71834 10.70991 11232 ft 346 kts 51°
2026-05-08 21:07 60.73389 10.74723 10941 ft 342 kts 52°
2026-05-08 21:07 60.74653 10.78664 10784 ft 325 kts 68°
2026-05-08 21:08 60.75265 10.82939 10645 ft 306 kts 91°
2026-05-08 21:08 60.74968 10.87079 10548 ft 287 kts 115°
2026-05-08 21:08 60.74034 10.90487 10439 ft 272 kts 133°
2026-05-08 21:08 60.72760 10.93222 10320 ft 260 kts 143°
2026-05-08 21:09 60.71280 10.95130 10178 ft 245 kts 163°
2026-05-08 21:09 60.69647 10.96071 9897 ft 245 kts 169°
2026-05-08 21:09 60.67986 10.96946 9633 ft 249 kts 169°
2026-05-08 21:09 60.66306 10.97832 9321 ft 249 kts 169°
2026-05-08 21:10 60.64643 10.98718 9011 ft 245 kts 169°
2026-05-08 21:10 60.63016 10.99590 8717 ft 239 kts 169°
2026-05-08 21:10 60.61429 11.00443 8398 ft 233 kts 169°
2026-05-08 21:10 60.59884 11.01275 8193 ft 236 kts 169°
2026-05-08 21:11 60.58261 11.02148 7743 ft 248 kts 169°
2026-05-08 21:11 60.56580 11.03056 7364 ft 250 kts 168°
2026-05-08 21:11 60.54908 11.03963 7038 ft 247 kts 168°
2026-05-08 21:11 60.53259 11.04854 6721 ft 243 kts 168°
2026-05-08 21:12 60.51638 11.05729 6399 ft 239 kts 168°
2026-05-08 21:12 60.50057 11.06585 6152 ft 231 kts 169°
2026-05-08 21:12 60.48537 11.07407 6059 ft 221 kts 169°
2026-05-08 21:12 60.47082 11.08225 5940 ft 216 kts 164°
2026-05-08 21:13 60.45802 11.09956 5700 ft 228 kts 139°
2026-05-08 21:13 60.44709 11.12238 5447 ft 229 kts 141°
2026-05-08 21:13 60.43577 11.14446 5153 ft 223 kts 142°
2026-05-08 21:13 60.42475 11.16586 4863 ft 216 kts 142°
2026-05-08 21:14 60.41412 11.18645 4606 ft 205 kts 146°
2026-05-08 21:14 60.40204 11.19808 4371 ft 189 kts 184°
2026-05-08 21:14 60.38944 11.19232 4186 ft 186 kts 199°
2026-05-08 21:14 60.37701 11.18501 3899 ft 183 kts 198°
2026-05-08 21:15 60.36498 11.17815 3645 ft 177 kts 198°
2026-05-08 21:15 60.35353 11.17150 3559 ft 174 kts 198°
2026-05-08 21:15 60.34169 11.16455 3310 ft 179 kts 198°
2026-05-08 21:15 60.32967 11.15755 3070 ft 179 kts 198°
2026-05-08 21:16 60.31820 11.15091 2864 ft 163 kts 198°
2026-05-08 21:16 60.30769 11.14478 2601 ft 150 kts 198°
2026-05-08 21:16 60.29808 11.13920 2422 ft 138 kts 197°
2026-05-08 21:16 60.28894 11.13388 2255 ft 137 kts 197°
2026-05-08 21:17 60.27975 11.12856 2050 ft 138 kts 197°
2026-05-08 21:17 60.27051 11.12318 1861 ft 139 kts 197°
2026-05-08 21:17 60.26119 11.11778 1669 ft 140 kts 197°
2026-05-08 21:17 60.25191 11.11242 1459 ft 142 kts 197°
2026-05-08 21:18 60.24239 11.10686 1277 ft 143 kts 195°
2026-05-08 21:18 60.23282 11.10135 1071 ft 144 kts 195°
2026-05-08 21:18 60.22319 11.09578 874 ft 144 kts 194°
2026-05-08 21:18 60.21360 11.09028 695 ft 143 kts 195°
2026-05-08 21:19 60.20479 11.08521 678 ft 115 kts 196°
2026-05-08 21:19 60.19860 11.08162 677 ft 70 kts 196°
2026-05-08 21:19 60.19535 11.07974 674 ft 29 kts 196°
2026-05-08 21:19 60.19420 11.07906 675 ft 14 kts 196°
2026-05-08 21:20 60.19343 11.07868 674 ft 8 kts 182°
2026-05-08 21:20 60.19291 11.07908 672 ft 8 kts 144°
2026-05-08 21:20 60.19265 11.08008 674 ft 8 kts 104°
2026-05-08 21:20 60.19250 11.08119 676 ft 8 kts 106°
2026-05-08 21:21 60.19234 11.08229 680 ft 8 kts 106°
2026-05-08 21:21 60.19215 11.08312 677 ft 6 kts 135°
2026-05-08 21:21 60.19178 11.08327 679 ft 6 kts 185°
2026-05-08 21:21 60.19138 11.08306 678 ft 6 kts 195°
2026-05-08 21:22 60.19095 11.08291 678 ft 5 kts 174°
2026-05-08 21:22 60.19069 11.08338 680 ft 5 kts 121°
2026-05-08 21:22 60.19058 11.08410 679 ft 5 kts 102°
2026-05-08 21:22 60.19052 11.08449 680 ft 2 kts 106°
2026-05-08 21:23 60.19050 11.08464 680 ft 0 kts 106°